Terug naar catalogus

SCOUT A DEB

ActiefPO
NORAD 2580·DEBRIS·🇺🇸 United States

Gelanceerd Aug 18, 1966 vanaf Vandenberg Space Force Base

Loading…

Volgende Passages (komende 24 uur)

TLE

VersSource: Space-Track

Epoch: Sep 13, 2026, 00:53 UTC

1 02580U 66076C   26256.03735565  .00000162  00000-0  14148-3 0  9995
2 02580  89.1295 278.5292 0096129  59.2660 331.0595 13.78768651  3990

Volg SCOUT A DEB in realtime met AllMySat

Download on the App Store